{"data":{"norad_id":62064,"epoch":"2026-09-21T06:28:09.444864Z","epoch_age_seconds":114650,"freshness":"FRESH","line1":"1 62064U 24217H   26264.26955376  .00121049  00000+0  98995-3 0  9996","line2":"2 62064  53.1579 186.9655 0001155  74.1258 285.9887 15.69698749105893","mean_motion":15.69698749,"eccentricity":0.0001155,"inclination_deg":53.1579,"raan_deg":186.9655,"arg_perigee_deg":74.1258,"mean_anomaly_deg":285.9887,"bstar":0.00098995,"rev_number":10589,"period_min":91.737347750157,"perigee_km":358.98071968559,"apogee_km":360.53717364927,"semimajor_km":6737.8959466674,"source":"CELESTRAK","updated_at":"2026-09-22T09:00:49.492959Z"}}